Location: Balaclava NSW 2575, Australia
(34.4510°S, 150.4953°E)
Time: 03:12:01
(UTC+10:00)

Vanguard 3 - Visible Passes

Search period start: 19 June 2021 00:00
Search period end: 29 June 2021 00:00
Orbit: 508 x 3261 km, 33.3° (Epoch: 17 June)

Date Brightness Start Highest point End Pass type
(mag) Time Alt. Az. Time Alt. Az. Time Alt. Az.
19 Jun 10.2 17:49:28 10° NW 18:07:59 66° NNE 18:22:43 20° E visible
19 Jun 9.6 20:04:49 10° W 20:25:14 86° N 20:27:15 77° ENE visible
19 Jun 10.6 22:22:49 10° W 22:31:48 34° W 22:31:48 34° W visible
20 Jun 10.0 18:48:00 10° WNW 19:07:40 80° NNE 19:17:10 40° E visible
20 Jun 9.8 21:04:50 10° W 21:21:42 69° W 21:21:42 69° W visible
20 Jun 11.2 23:23:13 10° WSW 23:26:14 17° W 23:26:14 17° W visible
21 Jun 10.2 17:32:12 10° NW 17:50:10 69° NNE 18:07:04 16° E visible
21 Jun 9.6 19:47:23 10° W 20:07:41 87° N 20:11:36 67° E visible
21 Jun 10.5 22:05:02 10° W 22:16:09 41° W 22:16:09 41° W visible
22 Jun 10.0 18:30:45 10° WNW 18:49:57 82° NNE 19:01:30 33° E visible
22 Jun 9.7 20:47:15 10° W 21:06:03 79° WNW 21:06:03 79° WNW visible
22 Jun 11.1 23:05:23 10° WSW 23:10:35 22° W 23:10:35 22° W visible
23 Jun 10.2 17:15:06 10° WNW 17:32:22 73° NNE 17:51:25 11° E visible
23 Jun 9.8 19:30:03 10° W 19:50:04 87° N 19:55:58 57° E visible
23 Jun 10.3 21:47:19 10° W 22:00:30 49° W 22:00:30 49° W visible
24 Jun 10.1 18:13:39 10° WNW 18:32:14 84° N 18:45:53 27° E visible
24 Jun 9.7 20:29:46 10° W 20:50:06 83° NNW 20:50:26 82° N visible
24 Jun 10.9 22:47:37 10° WSW 22:54:59 27° W 22:54:59 27° W visible
25 Jun 10.2 16:58:10 10° WNW 17:14:38 76° NNE 17:34:41 10° E visible
25 Jun 9.9 19:12:50 10° W 19:32:26 87° N 19:40:24 48° E visible
25 Jun 10.1 21:29:41 10° WSW 21:44:57 57° WNW 21:44:57 57° WNW visible
25 Jun 11.5 23:48:40 10° W 23:49:30 11° W 23:49:30 11° W visible
26 Jun 10.1 17:56:40 10° W 18:14:33 86° N 18:30:24 21° E visible
26 Jun 9.7 20:12:22 10° W 20:32:28 80° NNW 20:34:57 73° NE visible
26 Jun 10.8 22:29:56 10° WSW 22:39:30 32° W 22:39:30 32° W visible
27 Jun 10.0 18:55:43 10° W 19:14:45 86° N 19:25:00 39° E visible
27 Jun 10.0 21:12:07 10° WSW 21:29:33 62° NW 21:29:33 62° NW visible
27 Jun 11.3 23:31:10 10° W 23:34:07 15° W 23:34:07 15° W visible
28 Jun 10.1 17:39:50 10° W 17:56:54 86° N 18:15:06 15° E visible
28 Jun 9.8 19:55:04 10° W 20:14:46 78° NNW 20:19:40 60° NE visible
28 Jun 10.6 22:12:20 10° WSW 22:24:14 37° WNW 22:24:14 37° WNW visible
